Location: Oshawa
(43.9000°N, 78.8670°W)
Time: 03:25:05
(UTC-04:00)

CZ-4C R/B - Visible Passes

Search period start: 30 May 2017 00:00
Search period end: 09 June 2017 00:00
Orbit: 416 x 508 km, 97.5° (Epoch: 29 May)

Date Brightness Start Highest point End Pass type
(mag) Time Alt. Az. Time Alt. Az. Time Alt. Az.
30 May 3.6 01:16:48 59° N 01:16:48 59° N 01:19:50 10° N visible
31 May 4.4 00:45:12 32° ENE 00:45:12 32° ENE 00:48:19 10° N visible
31 May 5.3 02:19:06 16° WNW 02:19:06 16° WNW 02:20:35 10° NW visible
01 Jun 5.4 00:13:37 15° ENE 00:14:00 15° ENE 00:16:08 10° NNE visible
01 Jun 4.3 01:47:30 34° WNW 01:47:30 34° WNW 01:50:07 10° NNW visible
02 Jun 3.5 01:15:55 61° N 01:15:55 61° N 01:19:01 10° N visible
03 Jun 4.4 00:44:18 31° ENE 00:44:18 31° ENE 00:47:26 10° N visible
03 Jun 5.3 02:18:12 16° WNW 02:18:12 16° WNW 02:19:46 10° NW visible
04 Jun 5.5 00:12:42 14° ENE 00:13:09 14° ENE 00:15:10 10° NNE visible
04 Jun 4.2 01:46:35 36° WNW 01:46:35 36° WNW 01:49:15 10° NNW visible
05 Jun 3.4 01:14:58 63° NNE 01:14:58 63° NNE 01:18:06 10° N visible
06 Jun 4.5 00:43:21 30° ENE 00:43:21 30° ENE 00:46:28 10° N visible
06 Jun 5.2 02:17:15 17° WNW 02:17:15 17° WNW 02:18:53 10° NW visible
07 Jun 5.5 00:11:44 13° ENE 00:12:15 14° ENE 00:14:06 10° NE visible
07 Jun 4.1 01:45:37 37° WNW 01:45:37 37° WNW 01:48:19 10° NNW visible
08 Jun 3.4 01:13:59 63° NNE 01:13:59 63° NNE 01:17:07 10° N visible
